SCP
0 0 0 0 0 0 0 0 0 0 0 0 0 0 0 0 0 0 0 0 0 0 0 0 0 0 0 0 0 0 0 0 0 0 0 0 0 0 0 0 0 0 0
0 0 0 0 0 0 0 0 0 0 0 0 0 0 0 0 0 0 0 0 0 0 0 0 0 0 0 0 0 0 0 0 0 0 0 0 0 0 0 0 0 0 0
0 0 0 0 0 0 0 0 0 0 0 0 0 0 0 0 0 0 0 0 0 0 0 0 0 0 0 0 0 0 0 0 0 0 0 0 0 0 0 0 0 0 0
1 1 0 0 0 0 0 0 0 0 0 0 0 0 0 0 0 0 0 0 0 0 0 0 0 0 0 0 0 0 0 0 0 0 0 0 0 0 0 0 0 0 0
1 1 1 1 1 0 0 0 0 0 0 0 0 0 0 0 0 0 0 0 0 0 0 0 0 0 0 0 0 0 0 0 0 0 0 0 0 0 0 0 0 0 0
1 1 1 1 1 1 0 0 0 0 0 0 0 0 0 0 0 0 0 0 0 0 0 0 0 0 0 0 0 0 0 0 0 0 0 0 0 0 0 0 0 0 0
1 1 1 1 1 1 1 0 0 0 0 0 0 0 0 0 0 0 0 0 0 0 0 0 0 0 0 0 0 0 0 0 0 0 0 0 0 0 0 0 0 0 0
1 1 1 1 1 1 1 0 0 0 0 0 0 0 0 0 0 0 0 0 0 0 0 0 0 0 -0 0 0 0 0 0 0 0 0 0 0 0 0 0 0 0 0
1 1 1 1 1 1 0 0 0 0 0 0 0 0 0 0 0 0 0 0 0 0 0 0 0 0 -0 0 0 0 0 0 0 0 0 0 0 0 0 0 0 0 0
1 1 1 1 1 0 0 0 0 0 0 0 0 0 0 0 0 0 0 0 0 0 0 0 0 0 0 0 0 0 0 0 0 0 0 0 0 0 0 0 0 0 0
1 1 1 1 1 1 0 0 0 0 0 0 0 0 0 0 0 0 0 0 0 0 0 0 0 0 0 0 0 0 0 0 0 0 0 0 0 0 0 0 0 0 0
1 1 1 1 1 1 0 0 0 0 0 0 0 0 0 0 0 0 0 0 0 0 0 0 0 0 0 0 0 0 0 0 0 0 0 0 0 0 0 0 0 0 0
1 1 1 1 1 1 0 0 0 0 0 0 0 0 0 0 0 0 0 0 0 0 0 0 0 0 0 0 0 0 0 0 0 0 0 0 0 0 0 0 0 0 0
1 1 1 1 0 0 0 0 0 0 0 0 0 0 0 0 0 0 0 0 0 0 0 0 0 0 0 0 0 0 0 0 0 0 0 0 0 0 0 0 0 0 0
0 0 0 0 0 0 0 0 0 0 0 0 0 0 0 0 0 0 0 0 0 0 0 0 0 0 0 0 0 0 0 0 0 0 0 0 0 0 0 0 0 0 0
0 0 0 0 0 0 0 0 0 0 0 0 0 0 0 0 0 0 0 0 0 0 0 0 0 0 0 0 0 0 0 0 0 0 0 0 0 0 0 0 0 0 0
0 0 0 0 0 0 0 0 0 0 0 0 0 0 0 0 0 0 0 0 0 0 0 0 0 0 0 0 0 0 0 0 0 0 0 0 0 0 0 0 0 0 0
0 0 0 0 0 0 0 0 0 0 0 0 0 0 0 0 0 0 0 0 0 0 0 0 0 0 0 0 0 0 0 0 0 0 0 0 0 0 0 0 0 0 0
0 0 0 0 0 0 0 0 1 1 1 0 0 0 0 0 0 0 0 0 0 0 0 0 0 0 0 0 0 0 0 0 0 0 0 0 0 0 0 0 0 0 0
0 0 0 0 0 0 0 1 1 1 1 1 0 0 0 0 0 0 0 0 0 0 0 0 0 0 0 0 0 0 0 0 0 0 0 0 0 0 0 0 0 0 0
0 0 0 0 0 0 0 0 0 0 0 0 0 0 0 0 0 0 0 0 0 0 0 0 0 0 0 0 0 0 0 0 0 0 0 0 0 0 0 0 0 0 0
0 0 0 0 0 0 0 0 0 0 0 0 0 0 0 0 0 0 0 0 0 0 0 0 0 0 0 0 0 0 0 0 0 0 0 0 0 0 0 0 0 0 0
0 0 0 0 0 0 0 0 0 0 0 0 0 0 0 0 0 0 0 0 0 0 0 0 0 0 0 0 0 0 0 0 0 0 0 0 0 0 0 0 0 0 0
0 0 0 0 0 0 0 0 0 0 0 0 0 0 0 0 0 0 0 0 0 0 0 0 0 0 0 0 0 0 0 0 0 0 0 0 0 0 0 0 0 0 0
0 0 0 0 0 0 0 0 0 0 0 0 0 0 0 0 0 0 0 0 0 0 0 0 0 0 0 0 0 0 0 0 0 0 0 0 0 0 0 0 0 0 0
0 0 0 0 0 0 0 0 0 0 0 0 0 0 0 0 0 0 0 0 0 0 0 0 0 0 0 0 0 0 0 0 0 0 0 0 0 0 0 0 0 0 0
Wind_Speed
8 10 16 17 17 17 18 18 18 18 18 18 18 18 19 19 19 18 17 16 16 15 14 13 13 13 14 15 15 16 17 17 18 17 17 16 15 16 17 17 15 11 16
13 12 17 17 18 18 18 18 18 17 17 17 17 17 17 17 17 16 16 15 14 14 14 13 13 13 13 14 15 15 16 16 16 16 16 15 16 16 16 16 15 10 15
16 13 16 17 18 18 18 17 17 17 17 16 16 16 16 16 15 15 14 13 13 13 13 12 12 12 12 13 13 14 14 15 14 15 14 8 11 16 16 16 15 15 14
16 12 14 18 18 18 18 17 17 17 16 16 15 15 14 14 14 13 13 13 12 11 11 11 11 11 10 11 11 12 12 12 12 12 6 5 7 15 15 15 15 14 14
13 11 14 19 18 18 18 17 16 16 16 15 15 14 13 13 12 12 12 12 11 10 10 10 9 9 9 9 9 9 8 8 8 8 5 5 6 13 15 14 14 13 13
11 10 14 17 17 17 17 17 16 16 15 15 14 13 12 12 11 11 11 11 10 10 9 9 8 8 7 7 6 6 5 4 5 4 4 5 5 12 14 14 13 12 12
11 8 11 15 16 16 16 16 16 15 14 14 13 12 11 10 9 9 10 10 9 9 8 8 8 7 6 5 5 4 3 3 3 4 5 5 6 13 14 13 13 12 11
12 10 10 15 16 16 16 15 15 14 14 13 12 12 11 10 9 9 8 8 8 8 8 7 7 6 5 4 3 3 2 2 4 5 5 5 9 13 14 13 12 11 11
11 10 8 9 12 14 15 14 14 13 13 12 12 11 11 10 9 9 8 8 8 7 7 7 6 6 4 3 2 1 2 3 3 3 5 4 9 13 13 13 12 11 10
8 8 7 6 7 7 9 14 14 13 13 12 12 12 12 11 10 9 7 7 7 7 7 6 6 5 4 3 2 1 1 2 2 3 3 5 11 13 13 13 12 11 10
8 6 6 6 5 6 6 10 11 12 12 11 10 11 9 5 4 5 6 7 8 8 7 6 5 5 5 4 4 3 1 1 1 2 3 8 12 13 13 13 12 11 10
6 5 4 6 6 5 6 5 4 5 5 5 4 5 4 3 3 5 6 8 9 8 7 7 6 5 3 1 2 3 1 1 1 2 3 10 12 13 13 13 12 11 10
4 4 4 4 4 4 4 4 3 2 3 4 4 5 3 3 2 3 2 4 4 6 3 4 4 2 2 1 1 1 2 1 1 2 3 10 11 13 13 12 12 11 10
5 3 3 4 3 3 4 4 4 3 3 3 4 5 4 2 2 2 2 3 3 2 3 3 2 3 2 2 2 2 2 2 2 2 3 10 10 11 12 12 12 11 11
5 3 2 3 2 2 3 3 4 4 4 4 4 4 5 4 4 3 3 3 3 3 3 3 3 3 3 2 3 3 3 3 3 2 2 9 11 11 11 12 12 12 11
4 2 2 2 1 1 2 3 3 3 4 4 4 4 5 4 3 4 4 3 4 4 3 3 3 3 3 3 3 2 3 2 3 3 2 5 9 10 11 11 11 12 12
4 2 2 3 2 1 2 2 2 2 3 3 3 3 4 3 4 4 3 3 3 4 4 3 3 2 2 3 3 2 2 3 3 3 3 2 3 8 10 9 9 10 11
5 3 3 3 2 0 0 0 1 2 3 3 2 2 3 3 3 3 3 3 3 2 2 3 3 3 3 2 2 2 2 2 3 3 2 2 2 3 5 8 9 9 11
5 3 3 2 2 1 0 1 1 1 2 2 2 1 2 2 2 2 2 3 3 3 2 3 3 3 3 3 2 1 1 2 3 3 3 3 3 3 3 6 9 10 11
5 4 2 2 2 1 0 1 1 1 1 1 1 2 2 2 2 2 2 3 3 3 2 2 3 3 3 4 3 2 2 1 2 2 4 3 3 4 4 4 4 5 10
6 4 2 3 3 2 0 0 1 1 1 0 0 1 2 2 2 2 2 2 2 3 3 4 3 4 3 3 3 2 1 2 2 1 2 3 3 3 4 4 3 2 4
6 4 4 4 4 3 1 1 0 1 1 1 1 1 1 2 2 1 1 2 2 2 3 3 4 3 2 3 3 3 2 0 1 1 1 2 3 3 4 4 4 3 3
5 4 4 4 4 4 4 3 3 2 2 2 2 2 2 1 1 1 1 1 1 2 2 3 3 4 3 3 3 4 4 4 2 0 1 2 3 3 3 3 4 4 4
5 4 5 4 5 5 4 4 3 2 1 1 1 1 2 2 2 2 1 1 1 1 1 2 2 2 4 3 2 2 2 4 4 2 0 1 2 3 3 4 4 4 4
5 5 4 5 5 5 5 4 3 2 1 1 1 2 2 2 3 3 2 2 1 0 1 1 2 2 3 4 3 3 2 1 2 4 3 2 2 2 2 3 3 4 4
5 5 5 5 5 5 5 4 4 3 3 3 3 2 2 2 2 3 3 2 1 1 1 1 1 2 2 3 3 3 4 4 4 4 4 4 3 2 2 2 3 3 4
Wind_Direction
151 155 148 139 132 126 121 117 114 111 109 107 106 106 107 108 111 113 114 115 116 116 114 111 108 108 108 108 109 111 112 113 114 114 112 110 111 112 110 108 104 102 104
149 153 147 141 136 131 126 123 120 116 114 111 109 109 109 110 111 112 112 113 115 116 115 113 111 112 112 113 113 115 117 118 118 115 110 107 111 115 113 111 109 108 106
142 147 146 143 139 135 131 127 125 122 119 116 114 112 111 111 111 112 112 112 114 116 116 114 113 113 113 114 116 117 119 121 119 114 108 102 106 110 113 113 113 111 109
140 143 147 144 141 137 134 132 130 128 125 122 119 116 115 114 113 113 114 115 115 116 117 117 116 115 115 115 117 118 121 123 123 122 114 115 114 116 116 116 116 115 112
134 138 146 145 142 140 138 136 135 133 131 129 126 124 121 119 117 117 118 120 120 119 121 120 120 121 120 118 117 117 121 124 124 118 118 118 117 124 122 121 119 117 116
125 132 144 144 143 142 141 140 139 138 137 135 134 132 129 127 125 124 124 125 125 126 127 127 127 128 127 124 120 115 117 120 124 118 125 133 132 133 130 127 124 122 120
121 124 138 141 142 143 143 143 142 142 142 141 140 139 136 135 133 132 131 131 131 132 134 135 136 135 134 131 123 114 106 101 125 136 145 148 146 141 137 135 132 130 127
123 122 132 141 144 145 146 146 146 146 147 147 146 145 144 143 142 140 139 139 138 139 141 142 144 146 143 138 130 115 96 82 108 132 147 157 158 150 144 141 140 137 134
119 123 128 140 145 147 147 148 149 150 151 151 151 150 150 150 150 149 148 149 149 150 152 154 158 160 157 157 148 113 76 80 98 131 151 162 163 156 150 147 147 144 142
111 120 123 126 133 140 148 153 153 153 154 154 155 156 158 159 160 159 155 156 160 162 164 167 173 176 177 185 193 183 82 72 102 140 152 173 169 162 157 154 151 151 150
112 116 124 125 130 136 145 155 155 156 158 158 160 163 161 156 159 164 169 171 175 174 174 176 185 193 197 209 217 215 212 102 116 146 167 178 174 168 162 160 158 157 157
114 127 128 131 138 147 155 142 147 154 154 152 154 157 151 153 169 174 181 182 182 181 183 186 197 208 208 219 235 232 200 175 155 172 186 181 177 172 167 166 165 165 165
93 108 107 116 132 152 142 144 146 146 151 155 161 161 156 157 177 179 173 185 185 183 184 195 201 208 199 199 212 214 204 189 174 195 197 186 180 177 172 172 171 170 170
74 59 80 103 121 139 144 155 155 158 167 171 173 170 163 170 187 184 182 182 181 184 187 188 194 205 199 195 191 200 197 190 187 194 203 188 181 180 179 175 172 169 167
77 57 67 90 121 154 149 161 160 168 174 175 172 176 177 181 187 184 187 188 189 191 196 198 205 202 198 200 203 197 194 199 174 169 174 181 179 180 178 175 172 169 167
113 158 151 98 80 120 147 160 164 175 174 172 175 181 186 186 182 186 190 193 197 192 196 199 206 197 192 190 192 183 171 170 167 167 174 179 176 173 175 173 172 169 166
125 135 150 120 74 83 120 157 162 170 162 165 176 178 187 189 182 186 185 195 204 195 192 193 190 172 188 187 180 177 163 161 165 165 164 169 174 173 167 164 164 167 166
106 76 61 107 96 35 101 148 163 156 158 161 168 176 189 198 187 180 180 193 195 193 180 186 177 168 179 178 179 185 165 156 161 156 149 147 156 162 163 159 158 164 164
100 89 78 94 112 158 150 158 144 149 148 152 160 187 201 197 190 183 189 194 175 181 186 189 172 164 170 170 173 160 139 138 150 156 152 151 154 149 148 158 162 163 165
87 80 77 68 70 72 10 97 99 81 79 110 153 194 186 187 199 173 195 206 181 178 189 184 172 173 167 160 153 132 109 126 121 146 161 151 149 149 145 150 154 160 164
83 77 72 59 34 47 62 102 105 89 57 23 110 157 172 186 180 181 196 202 188 187 191 178 164 166 175 152 129 119 66 62 81 121 147 147 149 147 138 135 130 127 153
95 74 59 46 35 26 2 341 89 104 106 71 32 43 136 150 155 167 189 209 201 187 182 176 165 168 184 174 150 142 159 98 39 67 129 148 151 137 134 130 120 122 126
81 70 65 45 34 26 24 31 35 41 32 28 12 358 346 21 93 125 158 179 185 173 182 190 179 176 186 201 179 158 167 187 163 91 124 137 136 137 135 131 122 117 119
81 70 62 49 34 26 33 50 64 62 54 342 308 345 353 17 32 44 44 66 107 152 184 200 188 189 178 193 203 191 158 149 154 156 71 74 116 124 135 137 126 112 111
80 69 57 52 43 32 33 41 56 52 39 355 356 20 14 15 25 29 33 40 50 56 215 205 202 205 196 196 190 174 152 126 134 144 160 157 91 64 87 111 120 114 108
73 63 54 52 40 34 39 39 47 47 43 40 28 22 13 11 15 17 27 28 27 9 297 242 208 208 213 208 201 184 173 167 170 155 153 150 132 86 70 78 99 106 106